RYR8512 GMMD-LIME

Flight info

Callsign RYR8512
Flight time 2h 20m
Altitude 34000
Route PIMOS N869 GALTO UB11 TTN
Aircraft B738/M-SDE2E3FGHIRWXY/LB1

Departure

Time 2026-05-05 16:36
Airport Beni Mellal Airport (GMMD)

Arrival

Time 2026-05-05 18:56
Airport Il Caravaggio International Airport (LIME)
Time Latitude Longitude Altitude Speed Heading
2026-05-05 16:09 32.39644 -6.32664 1681 ft 0 kts 138°
2026-05-05 16:33 32.39640 -6.32665 1689 ft 1 kts 177°
2026-05-05 16:33 32.39634 -6.32672 1687 ft 4 kts 225°
2026-05-05 16:33 32.39593 -6.32723 1680 ft 8 kts 210°
2026-05-05 16:34 32.39560 -6.32718 1679 ft 7 kts 147°
2026-05-05 16:34 32.39524 -6.32675 1679 ft 7 kts 135°
2026-05-05 16:34 32.39482 -6.32627 1679 ft 10 kts 136°
2026-05-05 16:34 32.39428 -6.32561 1683 ft 12 kts 126°
2026-05-05 16:35 32.39434 -6.32494 1682 ft 5 kts 44°
2026-05-05 16:35 32.39441 -6.32488 1683 ft 0 kts 44°
2026-05-05 16:35 32.39482 -6.32440 1685 ft 35 kts 45°
2026-05-05 16:35 32.39853 -6.32000 1691 ft 113 kts 45°
2026-05-05 16:36 32.40574 -6.31169 1743 ft 173 kts 42°
2026-05-05 16:36 32.41504 -6.30100 2284 ft 198 kts 40°
2026-05-05 16:36 32.42653 -6.29120 3183 ft 207 kts 27°
2026-05-05 16:36 32.43978 -6.28292 3793 ft 222 kts 21°
2026-05-05 16:37 32.45479 -6.27741 4160 ft 235 kts
2026-05-05 16:37 32.47145 -6.27452 4607 ft 249 kts
2026-05-05 16:37 32.48910 -6.27081 5138 ft 264 kts 11°
2026-05-05 16:37 32.50741 -6.26497 5807 ft 274 kts 14°
2026-05-05 16:38 32.52580 -6.25856 6700 ft 276 kts 14°
2026-05-05 16:38 32.54454 -6.25193 7298 ft 287 kts 14°
2026-05-05 16:38 32.56363 -6.24513 8076 ft 291 kts 14°
2026-05-05 16:38 32.58333 -6.23810 8810 ft 297 kts 14°
2026-05-05 16:39 32.60310 -6.23103 9530 ft 303 kts 14°
2026-05-05 16:39 32.62361 -6.22363 10233 ft 310 kts 14°
2026-05-05 16:39 32.64502 -6.21582 10473 ft 334 kts 14°
2026-05-05 16:39 32.66796 -6.20746 10840 ft 350 kts 14°
2026-05-05 16:40 32.69132 -6.19889 11476 ft 356 kts 14°
2026-05-05 16:40 32.71517 -6.19005 12211 ft 360 kts 14°
2026-05-05 16:40 32.73889 -6.18110 12936 ft 363 kts 14°
2026-05-05 16:40 32.76326 -6.17182 13625 ft 368 kts 14°
2026-05-05 16:41 32.78759 -6.16240 14260 ft 373 kts 14°
2026-05-05 16:41 32.81250 -6.15265 14924 ft 376 kts 14°
2026-05-05 16:41 32.83726 -6.14285 15600 ft 379 kts 14°
2026-05-05 16:41 32.86240 -6.13278 16270 ft 382 kts 14°
2026-05-05 16:42 32.88749 -6.12260 16899 ft 385 kts 14°
2026-05-05 16:42 32.91308 -6.11211 17500 ft 389 kts 14°
2026-05-05 16:42 32.93893 -6.10143 18112 ft 393 kts 14°
2026-05-05 16:42 32.96490 -6.09063 18685 ft 397 kts 14°
2026-05-05 16:43 32.99087 -6.07977 19236 ft 401 kts 14°
2026-05-05 16:43 33.01734 -6.06864 19781 ft 404 kts 14°
2026-05-05 16:43 33.04363 -6.05752 20352 ft 406 kts 14°
2026-05-05 16:43 33.07050 -6.04639 20890 ft 409 kts 12°
2026-05-05 16:44 33.09781 -6.03652 21411 ft 411 kts 11°
2026-05-05 16:44 33.12554 -6.02710 21929 ft 414 kts 10°
2026-05-05 16:44 33.15350 -6.01766 22450 ft 417 kts 10°
2026-05-05 16:44 33.18128 -6.00814 22942 ft 421 kts 10°
2026-05-05 16:45 33.20962 -5.99824 23453 ft 424 kts 11°
2026-05-05 16:45 33.23788 -5.98820 23880 ft 427 kts 11°
2026-05-05 16:45 33.26663 -5.97788 24301 ft 430 kts 11°
2026-05-05 16:45 33.29519 -5.96754 24715 ft 433 kts 11°
2026-05-05 16:46 33.32421 -5.95700 25090 ft 435 kts 11°
2026-05-05 16:46 33.35325 -5.94643 25507 ft 436 kts 11°
2026-05-05 16:46 33.38250 -5.93578 25897 ft 439 kts 11°
2026-05-05 16:46 33.41167 -5.92516 26239 ft 443 kts 11°
2026-05-05 16:47 33.44136 -5.91434 26611 ft 445 kts 11°
2026-05-05 16:47 33.47057 -5.90224 27003 ft 453 kts 20°
2026-05-05 16:47 33.49772 -5.88204 27440 ft 464 kts 34°
2026-05-05 16:47 33.52110 -5.85500 27797 ft 473 kts 47°
2026-05-05 16:48 33.53985 -5.82257 28098 ft 480 kts 57°
2026-05-05 16:48 33.55984 -5.78100 28491 ft 484 kts 58°
2026-05-05 16:48 33.57641 -5.74568 28821 ft 487 kts 58°
2026-05-05 16:48 33.59315 -5.71005 29124 ft 490 kts 58°
2026-05-05 16:49 33.60850 -5.67765 29409 ft 493 kts 58°
2026-05-05 16:49 33.62557 -5.64155 29754 ft 495 kts 57°
2026-05-05 16:49 33.64347 -5.60621 30069 ft 496 kts 57°
2026-05-05 16:49 33.65712 -5.57719 30290 ft 498 kts 59°
2026-05-05 16:50 33.67381 -5.54023 30553 ft 501 kts 59°
2026-05-05 16:50 33.69031 -5.50385 30788 ft 503 kts 58°
2026-05-05 16:50 33.70790 -5.46731 31070 ft 503 kts 57°
2026-05-05 16:50 33.72581 -5.43107 31519 ft 500 kts 57°
2026-05-05 16:51 33.74348 -5.39538 32015 ft 495 kts 57°
2026-05-05 16:51 33.76080 -5.36014 32436 ft 493 kts 57°
2026-05-05 16:51 33.77811 -5.32456 32762 ft 493 kts 57°
2026-05-05 16:51 33.79542 -5.28872 33042 ft 494 kts 58°
2026-05-05 16:52 33.81254 -5.25311 33326 ft 494 kts 58°
2026-05-05 16:52 33.82973 -5.21726 33621 ft 494 kts 58°
2026-05-05 16:52 33.84670 -5.18184 33940 ft 493 kts 58°
2026-05-05 16:52 33.86389 -5.14596 34031 ft 497 kts 58°
2026-05-05 16:53 33.89847 -5.07376 34023 ft 498 kts 58°
2026-05-05 16:53 33.93071 -5.01673 34014 ft 488 kts 45°
2026-05-05 16:54 33.96281 -4.97933 34020 ft 482 kts 33°
2026-05-05 16:54 33.98058 -4.96303 34041 ft 482 kts 32°
2026-05-05 16:54 34.03490 -4.91475 34033 ft 485 kts 31°
2026-05-05 16:55 34.08912 -4.86614 34019 ft 488 kts 32°
2026-05-05 16:55 34.14359 -4.81648 34002 ft 490 kts 32°
2026-05-05 16:56 34.19761 -4.76690 34006 ft 490 kts 32°
2026-05-05 16:56 34.25215 -4.71678 33990 ft 490 kts 32°
2026-05-05 16:57 34.30666 -4.66669 34006 ft 498 kts 32°
2026-05-05 16:57 34.36249 -4.61528 34006 ft 508 kts 32°
2026-05-05 16:58 34.41889 -4.56317 34001 ft 517 kts 32°
2026-05-05 16:58 34.47651 -4.50950 33992 ft 524 kts 33°
2026-05-05 16:59 34.53440 -4.45535 33977 ft 526 kts 33°
2026-05-05 16:59 34.59224 -4.40118 33980 ft 527 kts 33°
2026-05-05 17:00 34.65041 -4.34665 33984 ft 528 kts 33°
2026-05-05 17:00 34.70835 -4.29225 33975 ft 528 kts 33°
2026-05-05 17:01 34.76637 -4.23767 33987 ft 528 kts 32°
2026-05-05 17:01 34.82476 -4.18265 33989 ft 529 kts 32°
2026-05-05 17:02 34.88289 -4.12778 33990 ft 529 kts 33°
2026-05-05 17:02 34.94083 -4.07297 33986 ft 530 kts 32°
2026-05-05 17:03 34.99937 -4.01753 33991 ft 531 kts 33°
2026-05-05 17:03 35.05761 -3.96222 34000 ft 532 kts 33°
2026-05-05 17:04 35.11602 -3.90664 34002 ft 533 kts 33°
2026-05-05 17:04 35.17459 -3.85083 33988 ft 533 kts 33°
2026-05-05 17:05 35.23321 -3.79565 34203 ft 532 kts 32°
2026-05-05 17:05 35.26247 -3.76865 34451 ft 530 kts 31°
2026-05-05 17:05 35.29212 -3.74137 34699 ft 527 kts 31°
2026-05-05 17:06 35.32116 -3.71461 34925 ft 526 kts 31°
2026-05-05 17:06 35.35042 -3.68758 34934 ft 524 kts 31°
2026-05-05 17:06 35.37950 -3.66060 34641 ft 516 kts 32°
2026-05-05 17:06 35.40770 -3.63437 34145 ft 513 kts 32°
2026-05-05 17:07 35.46497 -3.58110 33994 ft 521 kts 32°
2026-05-05 17:07 35.52317 -3.52688 33969 ft 529 kts 32°
2026-05-05 17:08 35.58195 -3.47192 33957 ft 532 kts 32°
2026-05-05 17:08 35.64067 -3.41688 33945 ft 531 kts 32°
2026-05-05 17:09 35.69967 -3.36151 33946 ft 531 kts 32°
2026-05-05 17:09 35.75837 -3.30633 33948 ft 531 kts 32°
2026-05-05 17:10 35.81677 -3.25134 33944 ft 531 kts 32°
2026-05-05 17:10 35.87527 -3.19578 33939 ft 532 kts 33°
2026-05-05 17:11 35.93385 -3.13933 33937 ft 532 kts 33°
2026-05-05 17:11 35.99215 -3.08303 33936 ft 533 kts 33°
2026-05-05 17:12 36.05038 -3.02680 33933 ft 533 kts 33°
2026-05-05 17:12 36.10899 -2.97012 33930 ft 533 kts 33°
2026-05-05 17:13 36.16748 -2.91345 33930 ft 534 kts 33°
2026-05-05 17:13 36.22571 -2.85691 33930 ft 534 kts 33°
2026-05-05 17:14 36.28415 -2.79994 33921 ft 535 kts 33°
2026-05-05 17:14 36.34262 -2.74278 33925 ft 535 kts 34°
2026-05-05 17:15 36.40087 -2.68573 33914 ft 535 kts 34°
2026-05-05 17:15 36.45956 -2.62815 33919 ft 535 kts 34°
2026-05-05 17:16 36.51791 -2.57079 33912 ft 535 kts 34°
2026-05-05 17:16 36.57608 -2.51348 33916 ft 535 kts 34°
2026-05-05 17:17 36.63437 -2.45595 33916 ft 535 kts 34°
2026-05-05 17:17 36.69230 -2.39866 33913 ft 535 kts 34°
2026-05-05 17:18 36.75068 -2.34080 33914 ft 534 kts 34°
2026-05-05 17:18 36.80904 -2.28286 33916 ft 534 kts 34°
2026-05-05 17:19 36.87000 -2.23225 33923 ft 525 kts 22°
2026-05-05 17:19 36.93482 -2.19037 33911 ft 524 kts 21°
2026-05-05 17:20 36.99956 -2.14861 33909 ft 524 kts 22°
2026-05-05 17:20 37.06402 -2.10597 33895 ft 524 kts 22°
2026-05-05 17:21 37.12810 -2.06316 33902 ft 524 kts 22°
2026-05-05 17:22 37.22472 -1.99859 33891 ft 524 kts 22°
2026-05-05 17:22 37.28885 -1.95637 33897 ft 523 kts 21°
2026-05-05 17:23 37.35373 -1.91518 33898 ft 522 kts 21°
2026-05-05 17:23 37.41864 -1.87399 33894 ft 523 kts 21°
2026-05-05 17:24 37.48352 -1.83247 33903 ft 523 kts 21°
2026-05-05 17:24 37.54831 -1.79080 33895 ft 523 kts 21°
2026-05-05 17:25 37.61344 -1.74882 33893 ft 523 kts 21°
2026-05-05 17:25 37.67822 -1.70701 33890 ft 523 kts 21°
2026-05-05 17:26 37.74291 -1.66517 33900 ft 524 kts 21°
2026-05-05 17:26 37.80794 -1.62303 33881 ft 524 kts 21°
2026-05-05 17:27 37.87264 -1.58102 33895 ft 524 kts 21°
2026-05-05 17:27 37.93739 -1.53873 33900 ft 524 kts 21°
2026-05-05 17:28 37.99118 -1.50294 33889 ft 524 kts 22°
2026-05-05 17:28 38.02619 -1.47951 33886 ft 524 kts 22°
2026-05-05 17:29 38.09067 -1.43630 33880 ft 523 kts 22°
2026-05-05 17:29 38.15481 -1.39333 33875 ft 523 kts 22°
2026-05-05 17:30 38.21912 -1.35021 33889 ft 522 kts 22°
2026-05-05 17:30 38.28311 -1.30722 33901 ft 523 kts 22°
2026-05-05 17:31 38.34746 -1.26390 33893 ft 523 kts 22°
2026-05-05 17:31 38.41200 -1.22036 33899 ft 524 kts 22°
2026-05-05 17:32 38.47645 -1.17678 33899 ft 523 kts 22°
2026-05-05 17:32 38.54078 -1.13319 33906 ft 523 kts 22°
2026-05-05 17:33 38.60460 -1.08987 33899 ft 522 kts 22°
2026-05-05 17:33 38.66882 -1.04618 33930 ft 522 kts 22°
2026-05-05 17:34 38.73292 -1.00249 33908 ft 520 kts 22°
2026-05-05 17:34 38.79686 -0.95883 33904 ft 519 kts 22°
2026-05-05 17:35 38.86022 -0.91549 33905 ft 518 kts 22°
2026-05-05 17:35 38.92397 -0.87179 33900 ft 518 kts 22°
2026-05-05 17:36 38.98757 -0.82809 33890 ft 518 kts 22°
2026-05-05 17:36 39.05119 -0.78427 33895 ft 519 kts 22°
2026-05-05 17:37 39.11099 -0.73024 33896 ft 528 kts 35°
2026-05-05 17:37 39.16672 -0.66905 33874 ft 530 kts 36°
2026-05-05 17:38 39.22310 -0.60788 33880 ft 529 kts 35°
2026-05-05 17:38 39.28003 -0.54718 33873 ft 530 kts 35°
2026-05-05 17:39 39.33773 -0.48893 33868 ft 528 kts 31°
2026-05-05 17:39 39.39694 -0.43262 33861 ft 528 kts 31°
2026-05-05 17:40 39.44618 -0.38551 33864 ft 529 kts 32°
2026-05-05 17:40 39.50509 -0.32828 33864 ft 530 kts 32°
2026-05-05 17:41 39.56394 -0.27067 33877 ft 530 kts 32°
2026-05-05 17:41 39.62285 -0.21291 33876 ft 530 kts 32°
2026-05-05 17:42 39.68168 -0.15514 33884 ft 530 kts 32°
2026-05-05 17:42 39.74000 -0.09777 33894 ft 530 kts 32°
2026-05-05 17:43 39.79879 -0.03981 33901 ft 530 kts 32°
2026-05-05 17:43 39.85510 0.02158 33900 ft 535 kts 43°
2026-05-05 17:44 39.90569 0.09303 33916 ft 536 kts 45°
2026-05-05 17:44 39.95598 0.16481 33919 ft 536 kts 44°
2026-05-05 17:45 40.00655 0.23541 33926 ft 536 kts 44°
2026-05-05 17:45 40.05768 0.30670 33927 ft 537 kts 44°
2026-05-05 17:46 40.10880 0.37819 33926 ft 538 kts 44°
2026-05-05 17:46 40.15988 0.44984 33928 ft 539 kts 44°
2026-05-05 17:47 40.21029 0.52074 33921 ft 540 kts 44°
2026-05-05 17:47 40.26183 0.59335 33920 ft 541 kts 44°
2026-05-05 17:48 40.31325 0.66600 33918 ft 542 kts 44°
2026-05-05 17:48 40.36431 0.73836 33918 ft 543 kts 45°
2026-05-05 17:49 40.41579 0.81148 33910 ft 544 kts 45°
2026-05-05 17:49 40.46700 0.88440 33917 ft 545 kts 45°
2026-05-05 17:50 40.51845 0.95784 33912 ft 545 kts 45°
2026-05-05 17:50 40.56973 1.03122 33914 ft 546 kts 45°
2026-05-05 17:51 40.62076 1.10462 33908 ft 546 kts 45°
2026-05-05 17:51 40.67219 1.17879 33910 ft 547 kts 45°
2026-05-05 17:52 40.72328 1.25259 33913 ft 547 kts 45°
2026-05-05 17:52 40.77479 1.32701 33914 ft 547 kts 46°
2026-05-05 17:53 40.82607 1.40125 33913 ft 548 kts 46°
2026-05-05 17:53 40.87728 1.47562 33905 ft 548 kts 46°
2026-05-05 17:54 40.92842 1.55025 33904 ft 549 kts 46°
2026-05-05 17:54 40.97984 1.62553 33898 ft 549 kts 46°
2026-05-05 17:55 41.03086 1.70036 33898 ft 550 kts 46°
2026-05-05 17:55 41.08203 1.77555 33905 ft 550 kts 46°
2026-05-05 17:56 41.13343 1.85115 33907 ft 551 kts 46°
2026-05-05 17:56 41.18464 1.92666 33917 ft 551 kts 46°
2026-05-05 17:57 41.23577 2.00229 33916 ft 551 kts 47°
2026-05-05 17:57 41.28487 2.08052 33906 ft 552 kts 57°
2026-05-05 17:58 41.31892 2.17134 33907 ft 547 kts 74°
2026-05-05 17:58 41.33721 2.26891 33913 ft 543 kts 81°
2026-05-05 17:59 41.35349 2.36719 33899 ft 544 kts 81°
2026-05-05 17:59 41.37030 2.46525 33896 ft 544 kts 81°
2026-05-05 18:00 41.38759 2.56366 33897 ft 545 kts 81°
2026-05-05 18:00 41.40480 2.66164 33892 ft 545 kts 81°
2026-05-05 18:01 41.42189 2.75986 33887 ft 545 kts 81°
2026-05-05 18:01 41.43886 2.85808 33882 ft 544 kts 81°
2026-05-05 18:02 41.45581 2.95678 33887 ft 544 kts 81°
2026-05-05 18:02 41.47257 3.05486 33886 ft 543 kts 81°
2026-05-05 18:03 41.48927 3.15305 33880 ft 543 kts 82°
2026-05-05 18:03 41.50575 3.25104 33881 ft 542 kts 82°
2026-05-05 18:04 41.52197 3.34908 33887 ft 542 kts 82°
2026-05-05 18:04 41.53820 3.44755 33881 ft 541 kts 82°
2026-05-05 18:05 41.55434 3.54553 33877 ft 541 kts 82°
2026-05-05 18:05 41.57053 3.64335 33877 ft 541 kts 82°
2026-05-05 18:06 41.58671 3.74175 33877 ft 540 kts 83°
2026-05-05 18:06 41.60270 3.83961 33878 ft 540 kts 83°
2026-05-05 18:07 41.61850 3.93734 33882 ft 540 kts 83°
2026-05-05 18:07 41.63425 4.03594 33880 ft 539 kts 83°
2026-05-05 18:08 41.64980 4.13390 33885 ft 539 kts 83°
2026-05-05 18:08 41.66525 4.23161 33888 ft 539 kts 83°
2026-05-05 18:09 41.68074 4.33009 33883 ft 539 kts 83°
2026-05-05 18:09 41.69605 4.42806 33884 ft 539 kts 83°
2026-05-05 18:10 41.71132 4.52637 33887 ft 539 kts 83°
2026-05-05 18:10 41.72934 4.62368 33875 ft 546 kts 72°
2026-05-05 18:11 41.76677 4.71229 33897 ft 552 kts 52°
2026-05-05 18:11 41.82019 4.78599 33902 ft 552 kts 43°
2026-05-05 18:12 41.87599 4.85705 33886 ft 552 kts 43°
2026-05-05 18:12 41.93109 4.92854 33890 ft 553 kts 44°
2026-05-05 18:13 41.98608 5.00139 33892 ft 553 kts 44°
2026-05-05 18:13 42.04062 5.07420 33899 ft 553 kts 44°
2026-05-05 18:14 42.09506 5.14700 33898 ft 553 kts 44°
2026-05-05 18:14 42.14968 5.22011 33896 ft 553 kts 44°
2026-05-05 18:15 42.20398 5.29295 33898 ft 553 kts 44°
2026-05-05 18:15 42.25835 5.36608 33895 ft 553 kts 44°
2026-05-05 18:16 42.31283 5.43954 33898 ft 553 kts 44°
2026-05-05 18:16 42.36745 5.51341 33899 ft 553 kts 44°
2026-05-05 18:17 42.42180 5.58708 33899 ft 553 kts 45°
2026-05-05 18:17 42.47617 5.66099 33902 ft 553 kts 45°
2026-05-05 18:18 42.53045 5.73495 33904 ft 553 kts 45°
2026-05-05 18:18 42.58456 5.80888 33906 ft 553 kts 45°
2026-05-05 18:19 42.63850 5.88278 33903 ft 553 kts 45°
2026-05-05 18:19 42.69244 5.95687 33910 ft 553 kts 45°
2026-05-05 18:20 42.74657 6.03142 33909 ft 552 kts 45°
2026-05-05 18:20 42.80038 6.10573 33918 ft 552 kts 45°
2026-05-05 18:21 42.85426 6.18011 33922 ft 552 kts 44°
2026-05-05 18:21 42.91216 6.24937 33929 ft 551 kts 38°
2026-05-05 18:22 42.97138 6.31573 33930 ft 551 kts 38°
2026-05-05 18:22 43.03037 6.38283 33930 ft 551 kts 39°
2026-05-05 18:23 43.08864 6.45031 33923 ft 552 kts 39°
2026-05-05 18:23 43.14710 6.51830 33926 ft 551 kts 39°
2026-05-05 18:24 43.19594 6.57513 33923 ft 552 kts 39°
2026-05-05 18:24 43.23232 6.62421 33906 ft 552 kts 51°
2026-05-05 18:24 43.24787 6.65192 33934 ft 551 kts 55°
2026-05-05 18:25 43.29925 6.75220 33917 ft 551 kts 56°
2026-05-05 18:25 43.33637 6.82379 33931 ft 551 kts 55°
2026-05-05 18:26 43.38134 6.90883 33937 ft 551 kts 55°
2026-05-05 18:26 43.42620 6.99425 33937 ft 551 kts 55°
2026-05-05 18:27 43.47087 7.07984 33938 ft 551 kts 56°
2026-05-05 18:27 43.51578 7.16609 33938 ft 551 kts 56°
2026-05-05 18:28 43.58259 7.29479 33938 ft 552 kts 56°
2026-05-05 18:28 43.62719 7.38097 33937 ft 551 kts 56°
2026-05-05 18:29 43.67152 7.46681 33941 ft 551 kts 56°
2026-05-05 18:29 43.71604 7.55321 33941 ft 551 kts 56°
2026-05-05 18:30 43.76044 7.63966 33947 ft 551 kts 56°
2026-05-05 18:30 43.80480 7.72610 33948 ft 551 kts 52°
2026-05-05 18:31 43.85873 7.80093 33955 ft 548 kts 34°
2026-05-05 18:31 43.91997 7.86380 33976 ft 548 kts 38°
2026-05-05 18:32 43.94760 7.90037 33942 ft 550 kts 49°
2026-05-05 18:32 43.97090 7.94184 33955 ft 548 kts 58°
2026-05-05 18:32 44.00827 8.03436 33948 ft 548 kts 63°
2026-05-05 18:33 44.04462 8.12714 33966 ft 547 kts 63°
2026-05-05 18:33 44.08158 8.21966 33964 ft 548 kts 62°
2026-05-05 18:34 44.11891 8.31229 33964 ft 548 kts 62°
2026-05-05 18:34 44.15621 8.40505 33957 ft 548 kts 62°
2026-05-05 18:35 44.19315 8.49741 33952 ft 549 kts 63°
2026-05-05 18:35 44.23034 8.59076 33952 ft 549 kts 63°
2026-05-05 18:36 44.26723 8.68368 33961 ft 549 kts 63°
2026-05-05 18:36 44.30413 8.77693 33966 ft 549 kts 63°
2026-05-05 18:37 44.34110 8.87064 33966 ft 549 kts 63°
2026-05-05 18:37 44.37775 8.96387 33965 ft 548 kts 63°
2026-05-05 18:38 44.41439 9.05716 33961 ft 549 kts 61°
2026-05-05 18:38 44.45920 9.14284 33996 ft 547 kts 47°
2026-05-05 18:39 44.50981 9.22236 33960 ft 548 kts 47°
2026-05-05 18:39 44.56031 9.30297 33938 ft 547 kts 40°
2026-05-05 18:40 44.59060 9.33351 33970 ft 536 kts 22°
2026-05-05 18:40 44.62492 9.35287 33951 ft 525 kts
2026-05-05 18:40 44.65968 9.36161 33649 ft 500 kts 355°
2026-05-05 18:40 44.69396 9.36070 32582 ft 487 kts 347°
2026-05-05 18:41 44.72784 9.35659 31321 ft 488 kts 346°
2026-05-05 18:41 44.76151 9.35185 29986 ft 492 kts 347°
2026-05-05 18:41 44.79576 9.34721 28408 ft 496 kts 348°
2026-05-05 18:41 44.83044 9.34295 26883 ft 498 kts 349°
2026-05-05 18:42 44.86482 9.33918 25481 ft 498 kts 351°
2026-05-05 18:42 44.89962 9.33561 24213 ft 495 kts 351°
2026-05-05 18:42 44.93357 9.33215 23054 ft 489 kts 352°
2026-05-05 18:42 44.96725 9.32868 21924 ft 479 kts 352°
2026-05-05 18:43 44.99995 9.33034 20859 ft 476 kts
2026-05-05 18:43 45.03104 9.34579 19831 ft 472 kts 27°
2026-05-05 18:43 45.05766 9.37259 18827 ft 466 kts 43°
2026-05-05 18:43 45.07824 9.40754 17772 ft 458 kts 58°
2026-05-05 18:44 45.09227 9.44682 16720 ft 447 kts 72°
2026-05-05 18:44 45.09922 9.48925 15730 ft 435 kts 83°
2026-05-05 18:44 45.10341 9.53131 14741 ft 427 kts 84°
2026-05-05 18:44 45.10740 9.57226 13760 ft 421 kts 83°
2026-05-05 18:45 45.11172 9.61305 12694 ft 414 kts 82°
2026-05-05 18:45 45.11617 9.65302 11708 ft 406 kts 82°
2026-05-05 18:45 45.12250 9.69058 11388 ft 384 kts 68°
2026-05-05 18:45 45.13609 9.72194 11196 ft 362 kts 49°
2026-05-05 18:46 45.15417 9.74579 10824 ft 347 kts 34°
2026-05-05 18:46 45.17469 9.76171 10506 ft 332 kts 22°
2026-05-05 18:46 45.19575 9.77392 10196 ft 320 kts 20°
2026-05-05 18:46 45.21616 9.78513 9885 ft 309 kts 20°
2026-05-05 18:47 45.23552 9.79568 9743 ft 298 kts 20°
2026-05-05 18:47 45.25514 9.80641 9308 ft 301 kts 20°
2026-05-05 18:47 45.27479 9.81723 8964 ft 301 kts 20°
2026-05-05 18:47 45.29404 9.82790 8660 ft 299 kts 20°
2026-05-05 18:48 45.30711 9.83518 8460 ft 297 kts 20°
2026-05-05 18:48 45.33268 9.84945 8074 ft 295 kts 20°
2026-05-05 18:48 45.35132 9.85989 7972 ft 285 kts 20°
2026-05-05 18:48 45.36947 9.87007 7949 ft 274 kts 20°
2026-05-05 18:49 45.38669 9.87974 7940 ft 261 kts 20°
2026-05-05 18:49 45.40324 9.88905 7941 ft 249 kts 20°
2026-05-05 18:49 45.41943 9.89814 7735 ft 253 kts 20°
2026-05-05 18:49 45.43601 9.90745 7212 ft 265 kts 20°
2026-05-05 18:50 45.45332 9.91719 6869 ft 268 kts 20°
2026-05-05 18:50 45.47066 9.92695 6630 ft 267 kts 20°
2026-05-05 18:50 45.48787 9.93666 6370 ft 262 kts 20°
2026-05-05 18:50 45.50468 9.94615 5981 ft 263 kts 20°
2026-05-05 18:51 45.52180 9.95581 5779 ft 260 kts 20°
2026-05-05 18:51 45.53842 9.96520 5559 ft 258 kts 20°
2026-05-05 18:51 45.55516 9.97466 5370 ft 253 kts 21°
2026-05-05 18:51 45.57108 9.98367 5312 ft 244 kts 21°
2026-05-05 18:52 45.58677 9.99181 5221 ft 233 kts
2026-05-05 18:52 45.60212 9.98936 4903 ft 225 kts 332°
2026-05-05 18:52 45.61314 9.97357 4431 ft 224 kts 297°
2026-05-05 18:52 45.61998 9.95358 4097 ft 223 kts 291°
2026-05-05 18:53 45.62570 9.93309 3793 ft 220 kts 289°
2026-05-05 18:53 45.63022 9.91239 3502 ft 217 kts 284°
2026-05-05 18:53 45.63399 9.89190 3222 ft 214 kts 284°
2026-05-05 18:53 45.63770 9.87136 2938 ft 211 kts 284°
2026-05-05 18:54 45.64139 9.85114 2665 ft 208 kts 284°
2026-05-05 18:54 45.64499 9.83150 2394 ft 202 kts 284°
2026-05-05 18:54 45.64847 9.81246 2128 ft 191 kts 284°
2026-05-05 18:54 45.65174 9.79463 1848 ft 181 kts 285°
2026-05-05 18:55 45.65484 9.77774 1595 ft 170 kts 285°
2026-05-05 18:55 45.65772 9.76210 1388 ft 157 kts 285°
2026-05-05 18:55 45.66046 9.74720 1157 ft 154 kts 285°
2026-05-05 18:55 45.66316 9.73250 945 ft 152 kts 286°
2026-05-05 18:56 45.66582 9.71786 770 ft 150 kts 285°
2026-05-05 18:56 45.66790 9.70663 776 ft 78 kts 284°
2026-05-05 18:56 45.66875 9.70204 784 ft 31 kts 284°
2026-05-05 18:56 45.66883 9.70000 784 ft 18 kts 255°
2026-05-05 18:57 45.66827 9.69848 784 ft 17 kts 240°
2026-05-05 18:57 45.66782 9.69767 784 ft 6 kts 208°
2026-05-05 18:57 45.66743 9.69767 784 ft 6 kts 168°
2026-05-05 18:57 45.66703 9.69772 784 ft 6 kts 183°
2026-05-05 18:58 45.66670 9.69769 785 ft 1 kts 183°